Location: Igloolik
(69.3800°N, 81.8000°W)
Time: 10:23:44
(UTC-05:00)

Amateur Radio Satellites - All Passes

Search period start: 24 October 2014 09:53
Search period end: 25 October 2014 09:53
Location: Igloolik, 69.3800°N, 81.8000°W

Satellite Date Start Highest point End Downlink Frequencies (MHz)
Time Altitude Azimuth
SO-67 24 Oct 09:55:37 09:58:39 29° 312° (NW) 10:01:42 435.3500 MHz FM
Uribyol 2 24 Oct 09:58:22 10:02:48 29° 24° (NNE) 10:07:14 436.500 FM
ITAMSAT 1 24 Oct 10:04:12 10:08:39 29° 24° (NNE) 10:13:06 435.822 SSB
Sapphire 24 Oct 10:11:17 10:16:38 58° 203° (SSW) 10:21:58 437.095 MHz 1200 baud AX-25 AFSK
JAS-2 24 Oct 10:12:14 10:18:43 39° 336° (NNW) 10:25:41 435.800 - 435.900 CW/SSB, 435.910 FM
Gurwin Techsat 1B 24 Oct 10:20:31 10:24:56 27° 21° (NNE) 10:29:22 435.225 FM
FUNcube-1 24 Oct 10:21:05 10:25:01 31° 92° (E) 10:28:51 145.950 - 145.970 MHz USB
Oscar 11 24 Oct 10:24:53 10:29:06 48° 102° (ESE) 10:33:18 145.825 FM, Beacon 2401.500 USB
HO-68 24 Oct 10:25:49 10:33:03 71° 113° (ESE) 10:40:16 435.675 MHz FM
TMSAT-1 24 Oct 10:32:12 10:36:36 27° 20° (NNE) 10:41:00 436.925 FM
Oscar 19 24 Oct 10:32:39 10:37:27 41° 41° (NE) 10:42:15 437.125 CW, 437.150 USB
PCSat 24 Oct 10:33:55 10:39:11 52° 209° (SSW) 10:44:27 145.825 MHz
AO-7 24 Oct 10:48:09 10:55:56 47° 5° (N) 11:03:45 29.400 - 29.500 MHz
AO-27 24 Oct 10:49:01 10:53:47 36° 36° (NE) 10:58:33 436.795 MHz FM
Saudisat 1A 24 Oct 11:03:11 11:07:22 42° 167° (SSE) 11:11:34 436.775 MHz
ZACube-1 24 Oct 11:12:28 11:16:50 58° 105° (ESE) 11:21:04 437.345 MHz
AO-Echo 24 Oct 11:17:52 11:22:41 45° 45° (NE) 11:27:38 ?
Oscar 16 24 Oct 11:17:55 11:22:59 59° 53° (NE) 11:28:03 437.025 USB, Beacon 2401.1428
UKube-1 24 Oct 11:18:56 11:23:21 89° 115° (ESE) 11:27:45 145.840 MHz, 145.915 MHz
Hamsat 24 Oct 11:24:29 11:26:56 15° 352° (N) 11:29:23 145.90 MHz
Uosat F 24 Oct 11:25:28 11:29:26 24° 12° (NNE) 11:33:25 435.120 FM
JAS-1B 24 Oct 11:27:41 11:33:17 63° 51° (NE) 11:39:10 435.800 - 435.900 CW/SSB
SO-67 24 Oct 11:28:59 11:30:49 14° 334° (NNW) 11:32:40 435.3500 MHz FM
Uribyol 2 24 Oct 11:36:30 11:41:34 51° 47° (NE) 11:46:38 436.500 FM
ITAMSAT 1 24 Oct 11:42:22 11:47:26 52° 48° (NE) 11:52:32 435.822 SSB
KITSAT 1 24 Oct 11:50:07 11:56:00 23° 110° (ESE) 12:01:53 435.175 FM
Sapphire 24 Oct 11:54:37 11:59:25 32° 227° (SW) 12:04:12 437.095 MHz 1200 baud AX-25 AFSK
JAS-2 24 Oct 11:56:23 12:02:27 33° 1° (N) 12:09:02 435.800 - 435.900 CW/SSB, 435.910 FM
FUNcube-1 24 Oct 11:57:29 12:01:55 84° 295° (WNW) 12:06:12 145.950 - 145.970 MHz USB
Gurwin Techsat 1B 24 Oct 11:59:01 12:04:06 47° 45° (NE) 12:09:11 435.225 FM
Oscar 11 24 Oct 12:01:12 12:05:27 56° 304° (NW) 12:09:41 145.825 FM, Beacon 2401.500 USB
TMSAT-1 24 Oct 12:10:39 12:15:42 46° 44° (NE) 12:20:46 436.925 FM
Oscar 19 24 Oct 12:11:24 12:16:35 88° 245° (WSW) 12:21:46 437.125 CW, 437.150 USB
HO-68 24 Oct 12:13:46 12:20:51 62° 318° (NW) 12:27:55 435.675 MHz FM
PCSat 24 Oct 12:17:19 12:21:48 27° 233° (SW) 12:26:15 145.825 MHz
AO-27 24 Oct 12:27:39 12:32:54 76° 59° (ENE) 12:38:10 436.795 MHz FM
AO-7 24 Oct 12:39:48 12:47:53 60° 31° (NNE) 12:56:00 29.400 - 29.500 MHz
Saudisat 1A 24 Oct 12:42:16 12:46:29 44° 190° (S) 12:50:42 436.775 MHz
ZACube-1 24 Oct 12:49:01 12:53:17 48° 308° (NW) 12:57:25 437.345 MHz
UKube-1 24 Oct 12:55:17 12:59:18 36° 318° (NW) 13:03:18 145.840 MHz, 145.915 MHz
AO-Echo 24 Oct 12:56:15 13:01:18 79° 248° (WSW) 13:06:33 ?
Oscar 16 24 Oct 12:57:25 13:02:30 56° 256° (WSW) 13:07:36 437.025 USB, Beacon 2401.1428
Hamsat 24 Oct 12:59:02 13:01:39 16° 15° (NNE) 13:04:17 145.90 MHz
Uosat F 24 Oct 13:02:42 13:07:17 36° 36° (NE) 13:11:52 435.120 FM
Uribyol 2 24 Oct 13:15:48 13:21:02 69° 251° (WSW) 13:26:18 436.500 FM
SO-50 24 Oct 13:16:15 13:18:39 14° 123° (ESE) 13:21:05 436.795 FM
JAS-1B 24 Oct 13:18:46 13:24:20 53° 257° (WSW) 13:30:07 435.800 - 435.900 CW/SSB
ITAMSAT 1 24 Oct 13:21:44 13:26:57 67° 251° (WSW) 13:32:13 435.822 SSB
FUNcube-1 24 Oct 13:34:02 13:37:59 33° 318° (NW) 13:41:50 145.950 - 145.970 MHz USB
Oscar 11 24 Oct 13:37:32 13:41:04 25° 327° (NNW) 13:44:36 145.825 FM, Beacon 2401.500 USB
Gurwin Techsat 1B 24 Oct 13:38:37 13:43:58 77° 248° (WSW) 13:49:20 435.225 FM
Sapphire 24 Oct 13:38:49 13:41:27 14° 251° (WSW) 13:44:04 437.095 MHz 1200 baud AX-25 AFSK
JAS-2 24 Oct 13:40:00 13:46:13 41° 27° (NNE) 13:53:04 435.800 - 435.900 CW/SSB, 435.910 FM
KITSAT 1 24 Oct 13:42:08 13:49:40 45° 136° (SE) 13:57:13 435.175 FM
TMSAT-1 24 Oct 13:50:09 13:55:29 79° 247° (WSW) 14:00:51 436.925 FM
Oscar 19 24 Oct 13:51:56 13:56:34 33° 268° (W) 14:01:13 437.125 CW, 437.150 USB
HO-68 24 Oct 14:01:12 14:07:49 41° 343° (NNW) 14:14:27 435.675 MHz FM
PCSat 24 Oct 14:03:04 14:03:35 10° 257° (WSW) 14:04:05 145.825 MHz
AO-27 24 Oct 14:07:53 14:12:51 42° 262° (W) 14:17:51 436.795 MHz FM
Saudisat 1A 24 Oct 14:21:37 14:25:26 29° 213° (SSW) 14:29:15 436.775 MHz
ZACube-1 24 Oct 14:25:31 14:29:01 23° 331° (NNW) 14:32:26 437.345 MHz
UKube-1 24 Oct 14:31:25 14:34:39 21° 341° (NNW) 14:37:54 145.840 MHz, 145.915 MHz
AO-7 24 Oct 14:32:14 14:40:34 84° 238° (WSW) 14:48:57 29.400 - 29.500 MHz
SO-67 24 Oct 14:32:59 14:34:24 12° 20° (NNE) 14:35:49 435.3500 MHz FM
Hamsat 24 Oct 14:33:05 14:36:37 27° 38° (NE) 14:40:10 145.90 MHz
AO-Echo 24 Oct 14:36:29 14:40:51 29° 272° (W) 14:45:22 ?
Oscar 16 24 Oct 14:39:07 14:42:58 21° 279° (W) 14:46:49 437.025 USB, Beacon 2401.1428
Uosat F 24 Oct 14:40:38 14:45:41 77° 59° (ENE) 14:50:46 435.120 FM
UOSAT-12 24 Oct 14:43:09 14:45:00 12° 120° (ESE) 14:46:51 437.025 FM, 437.400 FM
SO-50 24 Oct 14:53:58 14:58:01 30° 146° (SE) 15:02:11 436.795 FM
Uribyol 2 24 Oct 14:57:06 15:01:26 26° 274° (W) 15:05:47 436.500 FM
ITAMSAT 1 24 Oct 15:03:08 15:07:24 25° 275° (W) 15:11:42 435.822 SSB
FUNcube-1 24 Oct 15:10:21 15:13:27 19° 342° (NNW) 15:16:30 145.950 - 145.970 MHz USB
JAS-1B 24 Oct 15:12:34 15:16:38 20° 284° (WNW) 15:20:48 435.800 - 435.900 CW/SSB
Oscar 11 24 Oct 15:13:26 15:16:12 17° 350° (N) 15:18:58 145.825 FM, Beacon 2401.500 USB
Gurwin Techsat 1B 24 Oct 15:20:07 15:24:45 29° 272° (W) 15:29:23 435.225 FM
JAS-2 24 Oct 15:24:00 15:30:32 68° 53° (NE) 15:37:54 435.800 - 435.900 CW/SSB, 435.910 FM
TMSAT-1 24 Oct 15:31:32 15:36:11 30° 271° (W) 15:40:52 436.925 FM
Oscar 19 24 Oct 15:35:37 15:37:35 12° 292° (WNW) 15:39:33 437.125 CW, 437.150 USB
KITSAT 1 24 Oct 15:36:19 15:44:19 67° 163° (SSE) 15:52:19 435.175 FM
HO-68 24 Oct 15:47:54 15:54:26 39° 9° (N) 16:00:58 435.675 MHz FM
AO-27 24 Oct 15:50:41 15:53:48 16° 286° (WNW) 15:56:57 436.795 MHz FM
ZACube-1 24 Oct 16:01:28 16:04:17 17° 354° (N) 16:07:05 437.345 MHz
Saudisat 1A 24 Oct 16:01:47 16:03:53 13° 236° (SW) 16:05:59 436.775 MHz
SO-67 24 Oct 16:03:40 16:06:26 23° 42° (NE) 16:09:13 435.3500 MHz FM
UKube-1 24 Oct 16:06:46 16:09:43 18° 4° (N) 16:12:40 145.840 MHz, 145.915 MHz
OPAL 24 Oct 16:07:18 16:09:45 13° 77° (ENE) 16:12:11 ?
Hamsat 24 Oct 16:07:57 16:12:08 67° 61° (ENE) 16:16:19 145.90 MHz
UOSAT-12 24 Oct 16:19:54 16:23:53 28° 142° (SE) 16:27:53 437.025 FM, 437.400 FM
Uosat F 24 Oct 16:20:08 16:24:54 40° 262° (W) 16:29:42 435.120 FM
AO-Echo 24 Oct 16:20:29 16:21:28 11° 297° (WNW) 16:22:27 ?
AO-7 24 Oct 16:26:39 16:34:26 43° 264° (W) 16:42:17 29.400 - 29.500 MHz
SO-50 24 Oct 16:33:28 16:37:57 46° 170° (S) 16:42:32 436.795 FM
FUNcube-1 24 Oct 16:45:48 16:48:37 17° 5° (N) 16:51:24 145.950 - 145.970 MHz USB
Oscar 11 24 Oct 16:48:19 16:51:10 18° 14° (NNE) 16:54:02 145.825 FM, Beacon 2401.500 USB
Gurwin Techsat 1B 24 Oct 17:05:21 17:06:36 11° 296° (WNW) 17:07:51 435.225 FM
JAS-2 24 Oct 17:09:26 17:15:52 60° 259° (WSW) 17:23:09 435.800 - 435.900 CW/SSB, 435.910 FM
TMSAT-1 24 Oct 17:16:28 17:17:58 11° 296° (WNW) 17:19:28 436.925 FM
KITSAT 1 24 Oct 17:31:22 17:39:24 70° 190° (S) 17:47:26 435.175 FM
HO-68 24 Oct 17:34:19 17:41:14 53° 35° (NE) 17:48:11 435.675 MHz FM
SO-67 24 Oct 17:35:34 17:39:01 69° 64° (ENE) 17:42:29 435.3500 MHz FM
ZACube-1 24 Oct 17:36:22 17:39:29 19° 18° (NNE) 17:42:32 437.345 MHz
UKube-1 24 Oct 17:41:19 17:44:50 24° 28° (NNE) 17:48:21 145.840 MHz, 145.915 MHz
Hamsat 24 Oct 17:44:28 17:48:24 38° 263° (W) 17:52:20 145.90 MHz
OPAL 24 Oct 17:45:26 17:50:07 37° 100° (E) 17:54:44 ?
STRAND 1 24 Oct 17:50:18 17:53:50 18° 78° (ENE) 17:57:20 ?
UOSAT-12 24 Oct 17:58:50 18:03:20 44° 166° (SSE) 18:07:51 437.025 FM, 437.400 FM
Uosat F 24 Oct 18:02:17 18:05:07 15° 286° (WNW) 18:07:57 435.120 FM
SO-50 24 Oct 18:13:34 18:18:04 45° 193° (SSW) 18:22:39 436.795 FM
FUNcube-1 24 Oct 18:20:22 18:23:52 23° 28° (NNE) 18:27:18 145.950 - 145.970 MHz USB
Oscar 11 24 Oct 18:22:41 18:26:22 28° 37° (NE) 18:30:03 145.825 FM, Beacon 2401.500 USB
AO-7 24 Oct 18:24:13 18:29:49 19° 291° (WNW) 18:35:26 29.400 - 29.500 MHz
JAS-2 24 Oct 18:57:06 19:02:31 26° 285° (WNW) 19:08:28 435.800 - 435.900 CW/SSB, 435.910 FM
SO-67 24 Oct 19:09:14 19:12:19 29° 266° (W) 19:15:24 435.3500 MHz FM
ZACube-1 24 Oct 19:10:58 19:14:57 31° 41° (NE) 19:18:51 437.345 MHz
UKube-1 24 Oct 19:16:10 19:20:23 48° 50° (NE) 19:24:37 145.840 MHz, 145.915 MHz
HO-68 24 Oct 19:21:31 19:28:45 87° 240° (WSW) 19:36:01 435.675 MHz FM
Hamsat 24 Oct 19:23:47 19:25:33 12° 286° (WNW) 19:27:20 145.90 MHz
OPAL 24 Oct 19:24:27 19:29:31 83° 304° (WNW) 19:34:31 ?
KITSAT 1 24 Oct 19:26:29 19:34:13 51° 217° (SW) 19:41:56 435.175 FM
STRAND 1 24 Oct 19:29:15 19:34:17 48° 101° (ESE) 19:39:17 ?
UOSAT-12 24 Oct 19:38:29 19:43:02 47° 189° (S) 19:47:35 437.025 FM, 437.400 FM
SO-50 24 Oct 19:53:53 19:57:57 29° 216° (SW) 20:02:05 436.795 FM
FUNcube-1 24 Oct 19:55:14 19:59:33 45° 51° (NE) 20:03:47 145.950 - 145.970 MHz USB
Oscar 11 24 Oct 19:57:47 20:02:05 66° 59° (ENE) 20:06:24 145.825 FM, Beacon 2401.500 USB
ZACube-1 24 Oct 20:46:27 20:50:59 77° 63° (ENE) 20:55:27 437.345 MHz
JAS-2 24 Oct 20:48:27 20:50:33 11° 313° (NW) 20:52:43 435.800 - 435.900 CW/SSB, 435.910 FM
RS-15 24 Oct 20:51:52 20:58:55 20° 97° (E) 21:06:00 29.354 - 29.394 USB, Beacon 29.352 USB
UKube-1 24 Oct 20:52:15 20:56:36 60° 253° (WSW) 21:00:58 145.840 MHz, 145.915 MHz
OPAL 24 Oct 21:03:26 21:08:07 40° 327° (NNW) 21:12:45 ?
STRAND 1 24 Oct 21:08:37 21:13:46 67° 305° (NW) 21:18:53 ?
HO-68 24 Oct 21:10:34 21:17:19 41° 265° (W) 21:24:06 435.675 MHz FM
UOSAT-12 24 Oct 21:18:23 21:22:35 32° 212° (SSW) 21:26:45 437.025 FM, 437.400 FM
KITSAT 1 24 Oct 21:21:41 21:28:10 28° 243° (WSW) 21:34:39 435.175 FM
FUNcube-1 24 Oct 21:31:24 21:35:55 65° 253° (WSW) 21:40:21 145.950 - 145.970 MHz USB
Oscar 11 24 Oct 21:34:28 21:38:34 40° 262° (W) 21:42:41 145.825 FM, Beacon 2401.500 USB
SO-50 24 Oct 21:35:08 21:37:18 13° 239° (WSW) 21:39:29 436.795 FM
ZACube-1 24 Oct 22:23:37 22:27:48 35° 265° (W) 22:31:55 437.345 MHz
UKube-1 24 Oct 22:30:26 22:33:40 20° 275° (W) 22:36:54 145.840 MHz, 145.915 MHz
OPAL 24 Oct 22:41:58 22:46:12 28° 350° (N) 22:50:23 ?
STRAND 1 24 Oct 22:47:52 22:52:27 33° 328° (NNW) 22:57:02 ?
RS-15 24 Oct 22:58:16 23:08:07 42° 126° (SE) 23:18:05 29.354 - 29.394 USB, Beacon 29.352 USB
UOSAT-12 24 Oct 22:58:55 23:01:37 15° 235° (SW) 23:04:18 437.025 FM, 437.400 FM
HO-68 24 Oct 23:02:33 23:07:11 18° 291° (WNW) 23:11:51 435.675 MHz FM
FUNcube-1 24 Oct 23:09:36 23:13:06 22° 275° (W) 23:16:34 145.950 - 145.970 MHz USB
Oscar 11 24 Oct 23:13:47 23:15:56 13° 285° (WNW) 23:18:06 145.825 FM, Beacon 2401.500 USB
KITSAT 1 24 Oct 23:19:02 23:20:52 11° 269° (W) 23:22:43 435.175 FM
MaSat-1 25 Oct 00:00:05 00:02:12 15° 122° (ESE) 00:04:13 437.345 MHz
ZACube-1 25 Oct 00:03:42 00:05:31 12° 288° (WNW) 00:07:18 437.345 MHz
Oscar 19 25 Oct 00:08:48 00:11:29 14° 72° (ENE) 00:14:09 437.125 CW, 437.150 USB
OPAL 25 Oct 00:19:49 00:24:07 29° 14° (NNE) 00:28:23 ?
STRAND 1 25 Oct 00:26:35 00:30:37 24° 352° (N) 00:34:39 ?
AO-27 25 Oct 00:27:14 00:28:45 11° 66° (ENE) 00:30:17 436.795 MHz FM
JAS-1B 25 Oct 00:44:58 00:49:49 24° 81° (E) 00:55:10 435.800 - 435.900 CW/SSB
AO-Echo 25 Oct 00:48:50 00:52:13 17° 75° (ENE) 00:55:37 ?
Oscar 16 25 Oct 00:54:08 00:58:10 23° 83° (E) 01:02:11 437.025 USB, Beacon 2401.1428
RS-15 25 Oct 01:08:15 01:18:56 65° 157° (SSE) 01:29:51 29.354 - 29.394 USB, Beacon 29.352 USB
Uribyol 2 25 Oct 01:13:53 01:17:32 19° 78° (ENE) 01:21:10 436.500 FM
ITAMSAT 1 25 Oct 01:19:54 01:23:39 19° 79° (E) 01:27:22 435.822 SSB
MaSat-1 25 Oct 01:33:49 01:37:14 39° 143° (SE) 01:40:17 437.345 MHz
Gurwin Techsat 1B 25 Oct 01:40:08 01:43:46 18° 77° (ENE) 01:47:24 435.225 FM
Oscar 19 25 Oct 01:47:32 01:52:21 38° 96° (E) 01:57:07 437.125 CW, 437.150 USB
TMSAT-1 25 Oct 01:51:19 01:54:53 18° 76° (ENE) 01:58:26 436.925 FM
OPAL 25 Oct 01:57:27 02:02:16 45° 38° (NE) 02:07:03 ?
STRAND 1 25 Oct 02:04:30 02:08:38 25° 16° (NNE) 02:12:48 ?
AO-27 25 Oct 02:05:26 02:10:04 30° 90° (E) 02:14:41 436.795 MHz FM
AO-7 25 Oct 02:16:59 02:21:55 17° 63° (ENE) 02:26:50 29.400 - 29.500 MHz
JAS-2 25 Oct 02:17:55 02:19:13 10° 44° (NE) 02:20:32 435.800 - 435.900 CW/SSB, 435.910 FM
AO-Echo 25 Oct 02:27:16 02:32:20 44° 98° (E) 02:37:26 ?
Oscar 16 25 Oct 02:33:25 02:38:33 62° 107° (ESE) 02:43:39 437.025 USB, Beacon 2401.1428
JAS-1B 25 Oct 02:35:51 02:41:49 59° 105° (ESE) 02:48:43 435.800 - 435.900 CW/SSB
Uribyol 2 25 Oct 02:53:08 02:58:16 50° 102° (ESE) 03:03:20 436.500 FM
ITAMSAT 1 25 Oct 02:59:13 03:04:22 51° 103° (ESE) 03:09:28 435.822 SSB
MaSat-1 25 Oct 03:09:10 03:12:42 80° 164° (SSE) 03:15:48 437.345 MHz
PCSat 25 Oct 03:14:56 03:17:29 14° 109° (ESE) 03:20:03 145.825 MHz
RS-15 25 Oct 03:19:47 03:30:36 70° 188° (S) 03:41:43 29.354 - 29.394 USB, Beacon 29.352 USB
Gurwin Techsat 1B 25 Oct 03:19:52 03:25:04 48° 100° (E) 03:30:13 435.225 FM
Oscar 19 25 Oct 03:27:01 03:32:11 81° 299° (WNW) 03:37:20 437.125 CW, 437.150 USB
TMSAT-1 25 Oct 03:31:00 03:36:09 47° 100° (E) 03:41:17 436.925 FM
OPAL 25 Oct 03:35:52 03:41:00 84° 241° (WSW) 03:46:05 ?
STRAND 1 25 Oct 03:42:09 03:46:56 40° 40° (NE) 03:51:44 ?
AO-27 25 Oct 03:45:02 03:50:20 81° 114° (ESE) 03:55:36 436.795 MHz FM
JAS-2 25 Oct 04:01:35 04:07:23 24° 71° (ENE) 04:13:24 435.800 - 435.900 CW/SSB, 435.910 FM
AO-Echo 25 Oct 04:06:12 04:11:27 73° 301° (WNW) 04:16:47 ?
AO-7 25 Oct 04:09:59 04:17:35 37° 91° (E) 04:25:11 29.400 - 29.500 MHz
Uosat F 25 Oct 04:12:27 04:16:48 28° 89° (E) 04:21:08 435.120 FM
Oscar 16 25 Oct 04:12:58 04:17:59 54° 310° (NW) 04:22:59 437.025 USB, Beacon 2401.1428
JAS-1B 25 Oct 04:26:54 04:32:47 64° 309° (NW) 04:39:32 435.800 - 435.900 CW/SSB
Sapphire 25 Oct 04:32:46 04:37:13 26° 126° (SE) 04:41:40 437.095 MHz 1200 baud AX-25 AFSK
Uribyol 2 25 Oct 04:32:48 04:38:01 66° 305° (NW) 04:43:11 436.500 FM
ITAMSAT 1 25 Oct 04:38:53 04:44:06 64° 306° (NW) 04:49:17 435.822 SSB
MaSat-1 25 Oct 04:44:59 04:48:21 90° 359° (N) 04:51:19 437.345 MHz
PCSat 25 Oct 04:54:44 04:59:30 32° 133° (SE) 05:04:16 145.825 MHz
Gurwin Techsat 1B 25 Oct 05:00:02 05:05:21 68° 304° (WNW) 05:10:39 435.225 FM
Oscar 19 25 Oct 05:06:30 05:11:12 37° 322° (NW) 05:15:52 437.125 CW, 437.150 USB
TMSAT-1 25 Oct 05:11:06 05:16:25 70° 303° (WNW) 05:21:43 436.925 FM
Hamsat 25 Oct 05:15:12 05:18:23 20° 84° (E) 05:21:33 145.90 MHz
OPAL 25 Oct 05:16:00 05:20:33 32° 263° (W) 05:25:04 ?
STRAND 1 25 Oct 05:20:40 05:25:51 87° 63° (ENE) 05:31:04 ?
AO-27 25 Oct 05:24:43 05:29:42 45° 317° (NW) 05:34:40 436.795 MHz FM
RS-15 25 Oct 05:31:31 05:42:00 55° 218° (SW) 05:52:49 29.354 - 29.394 USB, Beacon 29.352 USB
AO-Echo 25 Oct 05:45:05 05:49:47 35° 324° (NW) 05:54:33 ?
JAS-2 25 Oct 05:46:55 05:54:10 51° 96° (E) 06:01:47 435.800 - 435.900 CW/SSB, 435.910 FM
Uosat F 25 Oct 05:51:16 05:56:23 76° 112° (ESE) 06:01:27 435.120 FM
Oscar 16 25 Oct 05:52:18 05:56:41 29° 333° (NNW) 06:01:03 437.025 USB, Beacon 2401.1428
AO-7 25 Oct 06:03:20 06:11:42 76° 118° (ESE) 06:20:04 29.400 - 29.500 MHz
Uribyol 2 25 Oct 06:12:19 06:16:58 33° 329° (NNW) 06:21:36 436.500 FM
Sapphire 25 Oct 06:14:34 06:19:49 51° 150° (SSE) 06:25:06 437.095 MHz 1200 baud AX-25 AFSK
JAS-1B 25 Oct 06:17:38 06:22:54 36° 334° (NNW) 06:28:45 435.800 - 435.900 CW/SSB
SO-67 25 Oct 06:18:21 06:20:12 14° 81° (E) 06:22:03 435.3500 MHz FM
ITAMSAT 1 25 Oct 06:18:26 06:23:03 33° 329° (NNW) 06:27:41 435.822 SSB
MaSat-1 25 Oct 06:20:46 06:23:53 50° 211° (SSW) 06:26:38 437.345 MHz
HO-68 25 Oct 06:33:58 06:36:22 12° 56° (NE) 06:38:45 435.675 MHz FM
PCSat 25 Oct 06:36:56 06:42:16 58° 157° (SSE) 06:47:37 145.825 MHz
Gurwin Techsat 1B 25 Oct 06:40:04 06:44:49 34° 327° (NNW) 06:49:34 435.225 FM
Oscar 19 25 Oct 06:45:33 06:49:36 24° 346° (NNW) 06:53:38 437.125 CW, 437.150 USB
Hamsat 25 Oct 06:50:56 06:55:07 65° 107° (ESE) 06:59:19 145.90 MHz
TMSAT-1 25 Oct 06:51:06 06:55:52 34° 327° (NNW) 07:00:37 436.925 FM
OPAL 25 Oct 06:59:31 07:01:05 11° 287° (WNW) 07:02:39 ?
STRAND 1 25 Oct 07:00:54 07:05:37 35° 266° (W) 07:10:23 ?
AO-27 25 Oct 07:04:04 07:08:24 27° 341° (NNW) 07:12:44 436.795 MHz FM
AO-Echo 25 Oct 07:23:29 07:27:33 24° 348° (NNW) 07:31:39 ?
Uosat F 25 Oct 07:30:14 07:35:04 46° 315° (NW) 07:39:53 435.120 FM
Oscar 16 25 Oct 07:31:00 07:34:56 23° 357° (N) 07:38:52 437.025 USB, Beacon 2401.1428
JAS-2 25 Oct 07:32:19 07:39:44 82° 300° (WNW) 07:47:37 435.800 - 435.900 CW/SSB, 435.910 FM
RS-15 25 Oct 07:43:11 07:52:10 31° 248° (WSW) 08:01:24 29.354 - 29.394 USB, Beacon 29.352 USB
SO-67 25 Oct 07:50:35 07:53:59 50° 103° (ESE) 07:57:22 435.3500 MHz FM
Uribyol 2 25 Oct 07:51:18 07:55:24 24° 353° (N) 07:59:31 436.500 FM
AO-7 25 Oct 07:56:23 08:04:34 65° 324° (NW) 08:12:46 29.400 - 29.500 MHz
MaSat-1 25 Oct 07:56:48 07:58:53 17° 235° (SW) 08:00:49 437.345 MHz
ITAMSAT 1 25 Oct 07:57:24 08:01:30 24° 353° (N) 08:05:37 435.822 SSB
Sapphire 25 Oct 07:57:32 08:02:58 70° 175° (S) 08:08:24 437.095 MHz 1200 baud AX-25 AFSK
Saudisat 1A 25 Oct 07:59:19 08:01:50 15° 127° (SE) 08:04:21 436.775 MHz
JAS-1B 25 Oct 08:07:36 08:12:28 29° 1° (N) 08:17:43 435.800 - 435.900 CW/SSB
Gurwin Techsat 1B 25 Oct 08:19:34 08:23:45 24° 351° (N) 08:27:56 435.225 FM
PCSat 25 Oct 08:20:03 08:25:29 71° 181° (S) 08:30:54 145.825 MHz
HO-68 25 Oct 08:20:49 08:26:55 28° 83° (E) 08:32:59 435.675 MHz FM
Oscar 19 25 Oct 08:23:46 08:27:45 23° 10° (N) 08:31:44 437.125 CW, 437.150 USB
UKube-1 25 Oct 08:26:53 08:28:41 12° 74° (ENE) 08:30:28 145.840 MHz, 145.915 MHz
Hamsat 25 Oct 08:27:03 08:31:02 42° 309° (NW) 08:35:00 145.90 MHz
TMSAT-1 25 Oct 08:30:34 08:34:45 24° 351° (N) 08:38:56 436.925 FM
AO-27 25 Oct 08:42:40 08:46:46 24° 5° (N) 08:50:52 436.795 MHz FM
STRAND 1 25 Oct 08:44:02 08:46:25 13° 290° (WNW) 08:48:48 ?
AO-Echo 25 Oct 09:01:05 09:05:05 23° 11° (NNE) 09:09:10 ?
FUNcube-1 25 Oct 09:06:45 09:08:51 13° 74° (ENE) 09:10:56 145.950 - 145.970 MHz USB
Oscar 11 25 Oct 09:07:18 09:10:30 20° 83° (E) 09:13:40 145.825 FM, Beacon 2401.500 USB
Oscar 16 25 Oct 09:08:54 09:13:08 27° 21° (NNE) 09:17:23 437.025 USB, Beacon 2401.1428
Uosat F 25 Oct 09:08:55 09:13:05 27° 339° (NNW) 09:17:16 435.120 FM
JAS-2 25 Oct 09:17:26 09:24:19 48° 324° (NW) 09:31:41 435.800 - 435.900 CW/SSB, 435.910 FM
SO-67 25 Oct 09:23:41 09:26:59 42° 305° (NW) 09:30:17 435.3500 MHz FM
Uribyol 2 25 Oct 09:29:27 09:33:43 26° 17° (NNE) 09:37:59 436.500 FM
ITAMSAT 1 25 Oct 09:35:33 09:39:50 26° 17° (NNE) 09:44:07 435.822 SSB
Saudisat 1A 25 Oct 09:36:27 09:40:21 31° 150° (SSE) 09:44:16 436.775 MHz
Sapphire 25 Oct 09:40:50 09:46:13 62° 199° (SSW) 09:51:35 437.095 MHz 1200 baud AX-25 AFSK
